sat.trackr.live / text

‹ back to catalog

FOSSASAT-2E21

NORAD 64536 · 2025-135J

PAYLOAD ACTIVE UNKNOWN

§ Identity

Operator
Country
SPN
Launch date
2025-06-23
Launch site
AFWTR
Launch vehicle
Mass (kg)
RCS (m²)

External: N2YO · Heavens-Above · Gunter

§ Orbital elements

Epoch: 2026-09-21T20:10:13.649664Z

Period
94.71 min
Inclination
97.4721°
Eccentricity
0.0003696
Mean motion
15.20397899 rev/d
Perigee alt
502.1 km
Apogee alt
507.2 km
Semi-major
6,882.8 km
B*
8.6158e-5
RAAN
18.2060°
Arg perigee
187.7618°
Mean anomaly
172.3561°
Rev number
6,950

§ Raw data

FOSSASAT-2E211 64536U 25135J   26264.84043576  .00001808  00000+0  86158-4 0  99952 64536  97.4721  18.2060 0003696 187.7618 172.3561 15.20397899 69503

JSON: /api/v1/satellites/64536 · /tle

For live sub-satellite position, see the globe view (requires WebGL).

§ Visibility from observer

Set your observer location to see the next 7 days of passes ≥ 10°. The values pass through the URL so the page stays shareable.

No JS? Fill the form by hand. The geolocation button needs JavaScript.

§ Radio — SatNOGS DB

ModeDescriptionDownlinkUplink
LoRa Mode U - LoRa 401.700 MHz

1 transmitter · refreshed weekly from db.satnogs.org